Location: Unspecified
(45.3712°N, 0.6436°E)
Time: 23:30:03
(UTC+02:00)

ISS - Pass Details

Date: 17 July 2018
Orbit: 402 x 408 km, 51.6° (Epoch: 16 July)

Event Time Altitude Azimuth Distance (km) Brightness Sun altitude
Exits shadow 03:13:49 - 294° (WNW) 1,548 -0.8 -21.5°
Reaches altitude 10° 03:14:03 10° 296° (WNW) 1,468 -0.9 -21.5°
Maximum altitude 03:16:54 27° 356° (N) 831 -1.6 -21.3°
Drops below altitude 10° 03:19:46 10° 56° (NE) 1,471 -0.3 -21.2°
Sets 03:22:04 0° 69° (ENE) 2,333 0.6 -21.0°
